Estación municipal de St. Hilari Sacalm (La Selva, Guilleries)

Consulta los datos en tiempo real de la estación municipal de St. Hilari Sacalm





Hora UTC 04:05
Temperatura 24.8 ºC
Humedad 45.7 %
Presión 1023.8 hPa
Pluja 0.0 mm
Velocidad viento 0.0 km/h
Dirección viento NNE
Radiación solar 0.1 W/m²

Webcam

Datos diarios 2026-09-06



Hora UTC (invierno +1h; verano +2h)
Temperatura (ºC) Humedad (%) Presión (hPa) Velocidad viento (km/h) Precipitación (mm) Radiación solar (W/m²)
Hora UTC Aire Humedad Presión Vel. Dir. Vel. Max Dir. Intent. máx 5 min. Rad. Sol.
00:05 23.4 53.2 1024.7 0.0 NNE 0.0 SSW 0.0 0.1
00:10 23.7 52.5 1024.8 2.6 SW 11.5 SSW 0.0 0.1
00:15 23.6 52.7 1024.8 2.2 SW 11.5 SW 0.0 0.1
00:20 23.4 53.9 1024.7 1.5 WSW 8.8 WSW 0.0 0.1
00:25 23.6 53.7 1024.7 2.6 W 8.8 WNW 0.0 0.1
00:30 24.0 52.7 1024.6 4.9 WNW 14.2 WNW 0.0 0.1
00:35 24.3 51.9 1024.6 3.5 W 11.5 W 0.0 0.1
00:40 24.3 52.2 1024.6 1.1 WSW 6.1 WSW 0.0 0.1
00:45 24.1 52.7 1024.6 0.1 WSW 6.1 W 0.0 0.1
00:50 24.0 53.0 1024.5 0.6 NW 8.8 NW 0.0 0.1
00:55 24.2 52.5 1024.5 2.1 WNW 8.8 NNW 0.0 0.1
01:00 24.2 52.0 1024.5 4.2 WNW 11.5 W 0.0 0.1
01:05 24.2 52.0 1024.4 4.8 WNW 11.5 WNW 0.0 0.2
01:10 24.1 52.0 1024.4 1.7 WNW 14.2 W 0.0 0.1
01:15 24.2 51.6 1024.4 5.4 NW 14.2 WNW 0.0 0.1
01:20 24.4 50.6 1024.3 8.5 NW 16.9 NW 0.0 0.1
01:25 24.6 50.0 1024.3 9.4 NW 19.6 NNW 0.0 0.2
01:30 24.7 49.7 1024.3 3.3 NW 14.2 WNW 0.0 0.1
01:35 24.6 50.2 1024.3 3.5 NW 11.5 N 0.0 0.1
01:40 24.5 50.4 1024.3 4.3 NW 19.6 N 0.0 0.1
01:45 24.5 50.4 1024.3 2.6 WNW 14.2 WSW 0.0 0.1
01:50 24.5 50.4 1024.3 5.1 NW 14.2 NNW 0.0 0.2
01:55 24.6 50.3 1024.3 6.2 NW 16.9 WNW 0.0 0.1
02:00 24.6 50.3 1024.3 7.3 NW 14.2 WNW 0.0 0.1
02:05 24.7 50.0 1024.3 5.7 NW 14.2 N 0.0 0.1
02:10 24.8 49.5 1024.2 6.6 NW 19.6 NW 0.0 0.1
02:15 24.8 49.2 1024.2 6.7 NW 16.9 NW 0.0 0.1
02:20 24.8 49.4 1024.2 6.8 NNW 14.2 WNW 0.0 0.1
02:25 24.8 49.5 1024.2 5.0 NNW 16.9 NNW 0.0 0.1
02:30 24.6 50.1 1024.1 5.1 NNW 14.2 NW 0.0 0.1
02:35 24.6 50.3 1024.1 8.4 NNW 19.6 NW 0.0 0.2
02:40 24.5 50.7 1024.1 6.7 NNW 16.9 NW 0.0 0.2
02:45 24.4 50.8 1024.1 9.0 NNW 19.6 NW 0.0 0.1
02:50 24.5 50.8 1024.1 8.2 NNW 16.9 NW 0.0 0.1
02:55 24.4 51.0 1024.1 8.4 NNW 22.3 NNW 0.0 0.1
03:00 24.6 50.6 1024.1 6.8 NNW 16.9 NNW 0.0 0.1
03:05 24.5 50.7 1024.1 7.9 NNW 16.9 NNW 0.0 0.1
03:10 24.6 50.6 1024.1 6.7 NNW 16.9 WNW 0.0 0.1
03:15 24.6 50.7 1024.1 2.5 NNW 14.2 W 0.0 0.1
03:20 24.7 50.1 1024.0 5.4 WNW 14.2 W 0.0 0.1
03:25 24.7 49.8 1024.0 2.2 W 11.5 W 0.0 0.1
03:30 24.5 50.1 1024.0 1.2 WNW 8.8 NW 0.0 0.1
03:35 24.4 50.1 1023.9 1.8 WNW 11.5 W 0.0 0.1
03:40 24.4 49.2 1023.9 3.7 WNW 11.5 NW 0.0 0.1
03:45 24.6 48.4 1023.9 4.9 NW 14.2 WNW 0.0 0.1
03:50 24.9 46.9 1023.8 3.9 WNW 19.6 WNW 0.0 0.1
03:55 24.9 46.8 1023.8 0.0 NNE 0.0 WSW 0.0 0.1
04:00 24.7 47.0 1023.8 0.0 NNE 0.0 SSE 0.0 0.1
04:05 24.8 45.7 1023.8 0.0 NNE 0.0 SE 0.0 0.1
Máxima 24.9 53.9 1024.8 9.4 NW 22.3 NNW 0.0 0.2
Mínima 20 45.7 1023.8
Total 0.0